Location: Gadern
(49.5873°N, 8.8138°E)
Time: 00:27:10
(UTC+00:00)

Cosmos 1805 Rocket - Pass Details

Date: 19 May 2025
Orbit: 600 x 623 km, 82.5° (Epoch: 23 June)

Event Time Altitude Azimuth Distance (km) Brightness Sun altitude
Rises 23:02:04 0° 347° (NNW) 2,919 8.6 -20.3°
Reaches altitude 10° 23:04:20 10° 344° (NNW) 2,006 7.3 -20.3°
Maximum altitude 23:08:43 64° 265° (W) 693 3.7 -20.4°
Enters shadow 23:09:42 49° 209° (SSW) 808 3.7 -20.4°
